| time (UTC) | temp C | wind direction | speed KPH | gust KPH | rain 1hr cm | rain 24hr cm | rain mn cm | humidity % | barometer mb |
| 20260510083019 | 10 | 86 | 0.0 | 3.2 | 0.00 | 0.38 | 0.00 | 95 | 1010.5 |
| 20260510081533 | 10 | 17 | 0.0 | 3.2 | 0.00 | 0.38 | 0.00 | 95 | 1010.6 |
| 20260510080008 | 10 | 17 | 0.0 | 1.6 | 0.00 | 0.38 | 0.00 | 95 | 1010.6 |
| 20260510074510 | 10 | 17 | 0.0 | 0.0 | 0.00 | 0.41 | 0.00 | 95 | 1010.7 |
| 20260510073022 | 10 | 17 | 0.0 | 3.2 | 0.00 | 0.41 | 0.00 | 95 | 1011.1 |
| 20260510071523 | 10 | 17 | 0.0 | 0.0 | 0.00 | 0.43 | 0.00 | 95 | 1011.2 |
| 20260510070026 | 10 | 17 | 0.0 | 0.0 | 0.00 | 0.43 | 0.00 | 95 | 1011.3 |
| 20260510064536 | 10 | 17 | 0.0 | 1.6 | 0.00 | 0.46 | 0.00 | 95 | 1011.5 |
| 20260510063018 | 10 | 17 | 0.0 | 3.2 | 0.00 | 0.46 | 0.00 | 95 | 1011.4 |
| 20260510061530 | 10 | 72 | 0.0 | 3.2 | 0.00 | 0.46 | 0.00 | 95 | 1011.4 |
| 20260510060032 | 10 | 5 | 0.0 | 3.2 | 0.00 | 0.46 | 0.00 | 95 | 1011.1 |
| 20260510054525 | 10 | 339 | 0.0 | 3.2 | 0.00 | 0.46 | 0.00 | 94 | 1011.0 |
| 20260510053011 | 10 | 51 | 0.0 | 3.2 | 0.00 | 0.46 | 0.00 | 94 | 1011.2 |
| 20260510051513 | 10 | 69 | 0.0 | 3.2 | 0.00 | 0.46 | 0.00 | 94 | 1011.2 |
| 20260510050018 | 10 | 69 | 0.0 | 3.2 | 0.00 | 0.46 | 0.00 | 94 | 1011.2 |
| 20260510044528 | 10 | 257 | 0.0 | 4.8 | 0.00 | 0.46 | 0.00 | 94 | 1011.0 |
| 20260510043026 | 10 | 25 | 0.0 | 3.2 | 0.03 | 0.46 | 0.00 | 94 | 1010.8 |
| 20260510041515 | 10 | 260 | 0.0 | 3.2 | 0.03 | 0.46 | 0.00 | 94 | 1010.6 |
| 20260510040021 | 10 | 255 | 0.0 | 3.2 | 0.03 | 0.46 | 0.00 | 94 | 1010.6 |
| 20260510034522 | 10 | 9 | 0.0 | 3.2 | 0.03 | 0.46 | 0.46 | 94 | 1010.6 |
| 20260510033026 | 10 | 22 | 0.0 | 3.2 | 0.00 | 0.43 | 0.43 | 94 | 1010.5 |
| 20260510031510 | 10 | 331 | 0.0 | 3.2 | 0.00 | 0.43 | 0.43 | 94 | 1010.7 |
| 20260510030016 | 10 | 297 | 0.0 | 3.2 | 0.00 | 0.43 | 0.43 | 94 | 1010.4 |
| 20260510024523 | 10 | 321 | 0.0 | 3.2 | 0.00 | 0.43 | 0.43 | 94 | 1010.7 |
| 20260510023022 | 10 | 45 | 0.0 | 3.2 | 0.00 | 0.43 | 0.43 | 94 | 1010.6 |
| 20260510021528 | 10 | 290 | 0.0 | 3.2 | 0.00 | 0.43 | 0.43 | 94 | 1010.5 |
| 20260510020014 | 10 | 38 | 0.0 | 3.2 | 0.00 | 0.43 | 0.43 | 94 | 1010.4 |
| 20260510014517 | 10 | 314 | 0.0 | 1.6 | 0.00 | 0.43 | 0.43 | 94 | 1010.3 |
| 20260510013025 | 10 | 314 | 0.0 | 0.0 | 0.00 | 0.43 | 0.43 | 93 | 1010.1 |
| 20260510011525 | 10 | 314 | 0.0 | 3.2 | 0.00 | 0.43 | 0.43 | 93 | 1010.3 |
| 20260510010027 | 10 | 294 | 0.0 | 3.2 | 0.00 | 0.43 | 0.43 | 93 | 1010.1 |
| 20260510004516 | 10 | 346 | 0.0 | 6.4 | 0.00 | 0.43 | 0.43 | 93 | 1010.0 |
| 20260510003021 | 10 | 287 | 0.0 | 3.2 | 0.00 | 0.43 | 0.43 | 93 | 1009.8 |
| 20260510001506 | 11 | 248 | 0.0 | 3.2 | 0.00 | 0.43 | 0.43 | 93 | 1009.5 |
| 20260510000008 | 11 | 289 | 0.0 | 3.2 | 0.03 | 0.43 | 0.43 | 92 | 1009.6 |
| 20260509234518 | 11 | 23 | 0.0 | 3.2 | 0.03 | 0.43 | 0.43 | 92 | 1009.3 |
| 20260509233030 | 11 | 313 | 0.0 | 3.2 | 0.03 | 0.43 | 0.43 | 91 | 1008.8 |
| 20260509231504 | 11 | 253 | 0.0 | 3.2 | 0.03 | 0.43 | 0.43 | 91 | 1008.7 |
| 20260509230006 | 11 | 256 | 1.6 | 3.2 | 0.00 | 0.41 | 0.41 | 91 | 1009.0 |
| 20260509224513 | 11 | 320 | 0.0 | 3.2 | 0.00 | 0.41 | 0.41 | 91 | 1009.0 |
| 20260509223013 | 11 | 265 | 1.6 | 3.2 | 0.00 | 0.41 | 0.41 | 92 | 1009.1 |
| 20260509221520 | 11 | 317 | 0.0 | 3.2 | 0.00 | 0.41 | 0.41 | 92 | 1009.2 |
| 20260509220005 | 11 | 302 | 0.0 | 3.2 | 0.00 | 0.41 | 0.41 | 92 | 1009.3 |
| 20260509214508 | 11 | 276 | 0.0 | 4.8 | 0.03 | 0.41 | 0.41 | 93 | 1009.3 |
| 20260509213012 | 11 | 14 | 0.0 | 3.2 | 0.03 | 0.41 | 0.41 | 92 | 1009.2 |
| 20260509211515 | 11 | 14 | 0.0 | 4.8 | 0.03 | 0.41 | 0.41 | 92 | 1009.5 |
| 20260509210024 | 11 | 279 | 0.0 | 3.2 | 0.03 | 0.41 | 0.41 | 93 | 1009.7 |
| 20260509204505 | 11 | 249 | 0.0 | 1.6 | 0.00 | 0.38 | 0.38 | 93 | 1009.6 |
| 20260509203010 | 11 | 134 | 0.0 | 3.2 | 0.03 | 0.38 | 0.38 | 93 | 1009.8 |
| 20260509201515 | 11 | 328 | 0.0 | 3.2 | 0.03 | 0.38 | 0.38 | 93 | 1010.1 |
| 20260509200020 | 10 | 287 | 0.0 | 3.2 | 0.03 | 0.38 | 0.38 | 93 | 1010.1 |
| 20260509194521 | 10 | 342 | 0.0 | 6.4 | 0.03 | 0.38 | 0.38 | 92 | 1010.4 |
| 20260509193006 | 11 | 262 | 0.0 | 3.2 | 0.03 | 0.36 | 0.36 | 93 | 1010.7 |
| 20260509191515 | 11 | 319 | 0.0 | 4.8 | 0.03 | 0.36 | 0.36 | 93 | 1010.9 |
| 20260509190019 | 11 | 95 | 1.6 | 9.7 | 0.03 | 0.36 | 0.36 | 93 | 1011.0 |
| 20260509184529 | 11 | 322 | 0.0 | 3.2 | 0.05 | 0.36 | 0.36 | 94 | 1010.9 |
| 20260509183031 | 10 | 258 | 0.0 | 4.8 | 0.03 | 0.33 | 0.33 | 94 | 1011.0 |
| 20260509181511 | 10 | 331 | 1.6 | 11.3 | 0.03 | 0.33 | 0.33 | 93 | 1011.1 |
| 20260509180018 | 10 | 324 | 3.2 | 12.9 | 0.05 | 0.33 | 0.33 | 93 | 1011.1 |
| 20260509174520 | 10 | 340 | 1.6 | 6.4 | 0.03 | 0.30 | 0.30 | 93 | 1010.9 |
| 20260509173028 | 10 | 11 | 4.8 | 11.3 | 0.03 | 0.30 | 0.30 | 93 | 1010.9 |
| 20260509171519 | 10 | 13 | 1.6 | 4.8 | 0.05 | 0.30 | 0.30 | 93 | 1010.8 |
| 20260509170014 | 10 | 254 | 1.6 | 4.8 | 0.03 | 0.28 | 0.28 | 93 | 1010.9 |
| 20260509164518 | 10 | 352 | 0.0 | 6.4 | 0.03 | 0.28 | 0.28 | 93 | 1010.9 |
| 20260509163048 | 10 | 280 | 1.6 | 4.8 | 0.05 | 0.28 | 0.28 | 93 | 1010.8 |
| 20260509161532 | 10 | 178 | 1.6 | 6.4 | 0.03 | 0.25 | 0.25 | 93 | 1010.9 |
| 20260509160010 | 10 | 255 | 0.0 | 3.2 | 0.05 | 0.25 | 0.25 | 93 | 1011.4 |
| 20260509154515 | 9 | 222 | 0.0 | 3.2 | 0.05 | 0.25 | 0.25 | 93 | 1011.6 |
| 20260509153025 | 9 | 72 | 0.0 | 3.2 | 0.03 | 0.23 | 0.23 | 92 | 1011.7 |
| 20260509151506 | 9 | 72 | 0.0 | 3.2 | 0.05 | 0.23 | 0.23 | 92 | 1011.8 |
| 20260509150008 | 9 | 279 | 0.0 | 3.2 | 0.03 | 0.20 | 0.20 | 92 | 1011.7 |
| 20260509144517 | 8 | 89 | 0.0 | 3.2 | 0.05 | 0.20 | 0.20 | 92 | 1011.8 |
| 20260509143026 | 8 | 165 | 0.0 | 3.2 | 0.05 | 0.20 | 0.20 | 91 | 1011.7 |
| 20260509141526 | 8 | 96 | 1.6 | 3.2 | 0.03 | 0.18 | 0.18 | 91 | 1011.6 |
| 20260509140005 | 8 | 303 | 0.0 | 4.8 | 0.05 | 0.18 | 0.18 | 91 | 1011.6 |
| 20260509134513 | 8 | 212 | 0.0 | 4.8 | 0.03 | 0.15 | 0.15 | 91 | 1011.7 |
| 20260509133019 | 8 | 112 | 0.0 | 3.2 | 0.03 | 0.15 | 0.15 | 92 | 1011.9 |
| 20260509131519 | 8 | 292 | 0.0 | 3.2 | 0.03 | 0.15 | 0.15 | 92 | 1011.9 |
| 20260509130026 | 8 | 202 | 0.0 | 3.2 | 0.00 | 0.13 | 0.13 | 92 | 1012.0 |
| 20260509124508 | 8 | 30 | 0.0 | 3.2 | 0.00 | 0.13 | 0.13 | 93 | 1011.8 |
| 20260509123011 | 8 | 9 | 1.6 | 3.2 | 0.00 | 0.13 | 0.13 | 93 | 1011.5 |
| 20260509121521 | 8 | 55 | 1.6 | 4.8 | 0.03 | 0.13 | 0.13 | 94 | 1011.6 |
| 20260509120024 | 8 | 65 | 0.0 | 3.2 | 0.03 | 0.13 | 0.13 | 94 | 1011.6 |
| 20260509114546 | 8 | 116 | 0.0 | 3.2 | 0.03 | 0.13 | 0.13 | 94 | 1011.5 |
| 20260509113011 | 7 | 166 | 0.0 | 3.2 | 0.03 | 0.13 | 0.13 | 94 | 1011.8 |
| 20260509111516 | 7 | 119 | 0.0 | 3.2 | 0.00 | 0.10 | 0.10 | 94 | 1011.9 |
| 20260509110021 | 7 | 123 | 0.0 | 3.2 | 0.00 | 0.10 | 0.10 | 94 | 1012.0 |
| 20260509104526 | 7 | 123 | 0.0 | 0.0 | 0.00 | 0.10 | 0.10 | 94 | 1011.7 |
| 20260509103027 | 7 | 123 | 0.0 | 0.0 | 0.00 | 0.10 | 0.10 | 94 | 1011.7 |
| 20260509101514 | 7 | 123 | 0.0 | 0.0 | 0.00 | 0.10 | 0.10 | 93 | 1011.4 |
| 20260509100022 | 7 | 123 | 0.0 | 0.0 | 0.03 | 0.10 | 0.10 | 93 | 1011.8 |
| 20260509094526 | 7 | 123 | 0.0 | 3.2 | 0.03 | 0.10 | 0.10 | 93 | 1012.0 |
| 20260509093027 | 7 | 123 | 0.0 | 0.0 | 0.03 | 0.10 | 0.10 | 93 | 1012.1 |
| 20260509091526 | 7 | 123 | 0.0 | 0.0 | 0.03 | 0.10 | 0.10 | 93 | 1012.2 |
| 20260509090042 | 7 | 123 | 0.0 | 3.2 | 0.00 | 0.08 | 0.08 | 93 | 1012.2 |
| 20260509084524 | 7 | 123 | 0.0 | 0.0 | 0.03 | 0.08 | 0.08 | 93 | 1012.1 |